Location: Barrio de Canyet
(41.4665°N, 2.2381°E)
Time: 20:46:14
(UTC+00:00)

SL-16 R/B - Pass Details

Date: 09 April 2020
Orbit: 842 x 846 km, 71.0° (Epoch: 31 May)

Event Time Altitude Azimuth Distance (km) Brightness Sun altitude
Rises 23:14:12 0° 336° (NNW) 3,412 6.2 -39.7°
Reaches altitude 10° 23:16:40 10° 337° (NNW) 2,474 5.3 -39.8°
Enters shadow 23:18:48 24° 339° (NNW) 1,687 4.2 -39.9°
